User: anonymous   Login
Location: Unspecified
(0.0000°N, 0.0000°E)
Time: 20:48:51
(UTC+00:00)
Language:

Kosmos-2004 - Orbit

View from above orbital plane
View from above orbital plane
View from above satellite
View from above satellite

Ground track
Ground track

The orbit data is extracted from the following two-line orbital elements,

1 19826U 89017A   18141.54417094  .00000046  00000-0  33533-4 0  9991
2 19826  82.9505 294.9251 0030776 158.4430 269.9055 13.72255453464273
Epoch (UTC): 21 May 2018 13:03:36
Eccentricity: 0.0030776
inclination: 82.9505°
perigee height: 969 km
apogee height: 1014 km
right ascension of ascending node: 294.9251°
argument of perigee: 158.4430°
revolutions per day: 13.72255453
mean anomaly at epoch: 269.9055°
orbit number at epoch: 46427

The dashed part of the orbit path shows where the satellite is in the earth's shadow,  

DLR